Time,TemperatureF,DewpointF,PressureIn,WindDirection,WindDirectionDegrees,WindSpeedMPH,WindSpeedGustMPH,Humidity,HourlyPrecipIn,Conditions,Clouds,dailyrainin,SoftwareType,DateUTC
2013-04-28 00:01:00,48.2,43.9,30.19,SSE,167,0.0,0.0,85,0.00,RA,,0.00,WeatherDisplay:10.37,2013-04-28 07:01:00,
2013-04-28 00:06:00,48.2,43.9,30.19,SSE,147,0.0,0.0,85,0.00,RA,,0.00,WeatherDisplay:10.37,2013-04-28 07:06:00,
2013-04-28 00:11:00,48.2,43.6,30.19,SSE,160,0.0,0.0,84,0.00,CLR,,0.00,WeatherDisplay:10.37,2013-04-28 07:11:00,
2013-04-28 00:16:00,48.1,43.5,30.19,SSE,151,0.0,0.0,84,0.00,CLR,,0.00,WeatherDisplay:10.37,2013-04-28 07:16:00,
2013-04-28 00:21:00,48.1,42.5,30.19,SE,143,0.0,0.0,81,0.00,CLR,,0.00,WeatherDisplay:10.37,2013-04-28 07:21:00,
2013-04-28 00:26:00,48.1,43.5,30.19,SSE,160,0.0,0.0,84,0.00,CLR,,0.00,WeatherDisplay:10.37,2013-04-28 07:26:00,
2013-04-28 00:31:00,48.0,43.7,30.19,SSE,149,0.0,0.0,85,0.00,CLR,,0.00,WeatherDisplay:10.37,2013-04-28 07:31:00,
2013-04-28 00:36:00,48.0,43.7,30.19,SSE,153,0.0,0.0,85,0.00,CLR,,0.00,WeatherDisplay:10.37,2013-04-28 07:36:00,
2013-04-28 00:41:00,47.8,43.5,30.19,South,170,0.0,0.0,85,0.00,CLR,,0.00,WeatherDisplay:10.37,2013-04-28 07:41:00,
2013-04-28 00:46:00,47.7,43.4,30.19,SSE,166,0.0,0.0,85,0.00,CLR,,0.00,WeatherDisplay:10.37,2013-04-28 07:46:00,
2013-04-28 00:51:00,47.6,43.6,30.19,SE,142,0.0,0.0,86,0.00,CLR,,0.00,WeatherDisplay:10.37,2013-04-28 07:51:00,
2013-04-28 00:56:00,47.6,43.9,30.19,SSE,154,0.0,0.0,87,0.00,CLR,,0.00,WeatherDisplay:10.37,2013-04-28 07:56:00,
2013-04-28 01:01:00,47.5,43.5,30.19,South,174,0.0,0.0,86,0.00,CLR,,0.00,WeatherDisplay:10.37,2013-04-28 08:01:00,
2013-04-28 01:06:00,47.5,43.5,30.19,SE,137,0.0,0.0,86,0.00,CLR,,0.00,WeatherDisplay:10.37,2013-04-28 08:06:00,
2013-04-28 01:11:00,47.3,43.3,30.19,SSE,147,0.0,0.0,86,0.00,CLR,,0.00,WeatherDisplay:10.37,2013-04-28 08:11:00,
2013-04-28 01:16:00,47.3,43.3,30.19,SE,145,0.0,0.0,86,0.00,CLR,,0.00,WeatherDisplay:10.37,2013-04-28 08:16:00,
2013-04-28 01:21:00,46.9,42.6,30.19,SE,136,0.0,0.0,85,0.00,CLR,,0.00,WeatherDisplay:10.37,2013-04-28 08:21:00,
2013-04-28 01:26:00,47.0,43.0,30.19,SE,139,0.0,0.0,86,0.00,CLR,,0.00,WeatherDisplay:10.37,2013-04-28 08:26:00,
2013-04-28 01:31:00,47.1,42.8,30.19,SSE,163,0.0,0.0,85,0.00,CLR,,0.00,WeatherDisplay:10.37,2013-04-28 08:31:00,
2013-04-28 01:36:00,47.2,42.3,30.19,SSE,160,0.0,0.0,83,0.00,CLR,,0.00,WeatherDisplay:10.37,2013-04-28 08:36:00,
2013-04-28 01:41:00,47.3,41.8,30.19,SSE,165,0.0,0.0,81,0.00,CLR,,0.00,WeatherDisplay:10.37,2013-04-28 08:41:00,
2013-04-28 01:46:00,47.5,41.6,30.19,SSE,148,0.0,0.0,80,0.00,CLR,,0.00,WeatherDisplay:10.37,2013-04-28 08:46:00,
2013-04-28 01:51:00,47.8,42.6,30.19,SSE,155,0.0,0.0,82,0.00,CLR,,0.00,WeatherDisplay:10.37,2013-04-28 08:51:00,
2013-04-28 01:56:00,47.6,41.4,30.19,SE,142,0.0,0.0,79,0.00,CLR,,0.00,WeatherDisplay:10.37,2013-04-28 08:56:00,
2013-04-28 02:01:00,47.3,41.1,30.19,SE,132,0.0,0.0,79,0.00,CLR,,0.00,WeatherDisplay:10.37,2013-04-28 09:01:00,
2013-04-28 02:06:00,47.2,40.7,30.19,SSE,159,0.0,0.0,78,0.00,CLR,,0.00,WeatherDisplay:10.37,2013-04-28 09:06:00,
2013-04-28 02:11:00,47.6,40.4,30.19,SE,131,0.0,0.0,76,0.00,CLR,,0.00,WeatherDisplay:10.37,2013-04-28 09:11:00,
2013-04-28 02:16:00,47.6,39.0,30.18,SSE,153,0.0,0.0,72,0.00,CLR,,0.00,WeatherDisplay:10.37,2013-04-28 09:16:00,
2013-04-28 02:21:00,47.6,38.7,30.18,SSE,149,0.0,0.0,71,0.00,CLR,,0.00,WeatherDisplay:10.37,2013-04-28 09:21:00,
2013-04-28 02:26:00,47.5,39.6,30.18,SE,144,0.0,0.0,74,0.00,CLR,,0.00,WeatherDisplay:10.37,2013-04-28 09:26:00,
2013-04-28 02:31:00,47.1,40.3,30.18,SSE,160,0.0,0.0,77,0.00,CLR,,0.00,WeatherDisplay:10.37,2013-04-28 09:31:00,
2013-04-28 02:36:00,46.9,40.1,30.18,SE,134,0.0,0.0,77,0.00,CLR,,0.00,WeatherDisplay:10.37,2013-04-28 09:36:00,
2013-04-28 02:41:00,46.6,39.8,30.18,SE,133,0.0,0.0,77,0.00,CLR,,0.00,WeatherDisplay:10.37,2013-04-28 09:41:00,
2013-04-28 02:46:00,46.4,39.2,30.19,SE,142,0.0,0.0,76,0.00,CLR,,0.00,WeatherDisplay:10.37,2013-04-28 09:46:00,
2013-04-28 02:51:00,46.3,39.5,30.19,SE,135,0.0,0.0,77,0.00,CLR,,0.00,WeatherDisplay:10.37,2013-04-28 09:51:00,
2013-04-28 02:56:00,46.5,40.3,30.18,SE,139,0.0,0.0,79,0.00,CLR,,0.00,WeatherDisplay:10.37,2013-04-28 09:56:00,
2013-04-28 03:01:00,46.5,40.3,30.18,SE,134,0.0,0.0,79,0.00,CLR,,0.00,WeatherDisplay:10.37,2013-04-28 10:01:00,
2013-04-28 03:06:00,46.6,40.8,30.18,SE,143,0.0,0.0,80,0.00,CLR,,0.00,WeatherDisplay:10.37,2013-04-28 10:06:00,
2013-04-28 03:11:00,46.5,40.3,30.18,SE,141,0.0,0.0,79,0.00,CLR,,0.00,WeatherDisplay:10.37,2013-04-28 10:11:00,
2013-04-28 03:16:00,46.4,40.6,30.18,SSE,152,0.0,0.0,80,0.00,CLR,,0.00,WeatherDisplay:10.37,2013-04-28 10:16:00,
2013-04-28 03:21:00,46.5,41.3,30.19,SSE,152,0.0,0.0,82,0.00,CLR,,0.00,WeatherDisplay:10.37,2013-04-28 10:21:00,
2013-04-28 03:26:00,46.4,41.2,30.18,SSE,151,0.0,0.0,82,0.00,CLR,,0.00,WeatherDisplay:10.37,2013-04-28 10:26:00,
2013-04-28 03:31:00,46.2,41.3,30.18,SE,145,0.0,0.0,83,0.00,CLR,,0.00,WeatherDisplay:10.37,2013-04-28 10:31:00,
2013-04-28 03:36:00,46.0,41.1,30.19,SSE,158,0.0,0.0,83,0.00,CLR,,0.00,WeatherDisplay:10.37,2013-04-28 10:36:00,
2013-04-28 03:41:00,46.1,41.2,30.19,SSE,162,0.0,0.0,83,0.00,CLR,,0.00,WeatherDisplay:10.37,2013-04-28 10:41:00,
2013-04-28 03:46:00,46.0,41.1,30.19,SE,136,0.0,0.0,83,0.00,CLR,,0.00,WeatherDisplay:10.37,2013-04-28 10:46:00,
2013-04-28 03:51:00,45.9,41.3,30.19,South,184,0.0,0.0,84,0.00,CLR,,0.00,WeatherDisplay:10.37,2013-04-28 10:51:00,
2013-04-28 03:56:00,45.7,40.8,30.19,South,182,0.0,0.0,83,0.00,CLR,,0.00,WeatherDisplay:10.37,2013-04-28 10:56:00,
2013-04-28 04:01:00,45.6,41.0,30.19,SE,144,0.0,0.0,84,0.00,CLR,,0.00,WeatherDisplay:10.37,2013-04-28 11:01:00,
2013-04-28 04:06:00,45.5,40.9,30.19,SE,141,0.0,0.0,84,0.00,CLR,,0.00,WeatherDisplay:10.37,2013-04-28 11:06:00,
2013-04-28 04:11:00,45.4,41.2,30.19,SSE,155,0.0,0.0,85,0.00,CLR,,0.00,WeatherDisplay:10.37,2013-04-28 11:11:00,
2013-04-28 04:16:00,45.0,40.5,30.19,NNE,12,0.0,0.0,84,0.00,CLR,,0.00,WeatherDisplay:10.37,2013-04-28 11:16:00,
2013-04-28 04:21:00,43.6,39.1,30.20,North,359,0.0,0.0,84,0.00,CLR,,0.00,WeatherDisplay:10.37,2013-04-28 11:21:00,
2013-04-28 04:26:00,42.2,38.0,30.20,NNE,13,0.0,0.0,85,0.00,CLR,,0.00,WeatherDisplay:10.37,2013-04-28 11:26:00,
2013-04-28 04:31:00,41.3,37.7,30.20,NNE,23,0.0,0.0,87,0.00,CLR,,0.00,WeatherDisplay:10.37,2013-04-28 11:31:00,
2013-04-28 04:36:00,40.7,37.4,30.20,NNE,23,0.0,0.0,88,0.00,CLR,,0.00,WeatherDisplay:10.37,2013-04-28 11:36:00,
2013-04-28 04:41:00,40.3,37.0,30.19,NNE,28,0.0,0.0,88,0.00,CLR,,0.00,WeatherDisplay:10.37,2013-04-28 11:41:00,
2013-04-28 04:46:00,40.0,37.0,30.19,NNE,23,0.0,0.0,89,0.00,CLR,,0.00,WeatherDisplay:10.37,2013-04-28 11:46:00,
2013-04-28 04:51:00,39.5,36.8,30.19,NNE,28,0.0,0.0,90,0.00,CLR,,0.00,WeatherDisplay:10.37,2013-04-28 11:51:00,
2013-04-28 04:56:00,39.2,36.5,30.20,NNE,28,0.0,0.0,90,0.00,CLR,,0.00,WeatherDisplay:10.37,2013-04-28 11:56:00,
2013-04-28 05:01:00,38.9,36.5,30.20,NNE,23,0.0,0.0,91,0.00,CLR,,0.00,WeatherDisplay:10.37,2013-04-28 12:01:00,
2013-04-28 05:06:00,38.7,36.3,30.19,NNE,23,0.0,0.0,91,0.00,CLR,,0.00,WeatherDisplay:10.37,2013-04-28 12:06:00,
2013-04-28 05:11:00,38.4,36.0,30.20,NNE,23,0.0,0.0,91,0.00,CLR,,0.00,WeatherDisplay:10.37,2013-04-28 12:11:00,
2013-04-28 05:16:00,38.3,36.2,30.20,NNE,28,0.0,0.0,92,0.00,CLR,,0.00,WeatherDisplay:10.37,2013-04-28 12:16:00,
2013-04-28 05:21:00,38.2,36.1,30.20,NNE,23,0.0,0.0,92,0.00,CLR,,0.00,WeatherDisplay:10.37,2013-04-28 12:21:00,
2013-04-28 05:26:00,38.0,35.9,30.20,NNE,23,0.0,0.0,92,0.00,CLR,,0.00,WeatherDisplay:10.37,2013-04-28 12:26:00,
2013-04-28 05:31:00,37.9,35.8,30.20,NNE,23,0.0,0.0,92,0.00,CLR,,0.00,WeatherDisplay:10.37,2013-04-28 12:31:00,
2013-04-28 05:36:00,37.9,36.1,30.20,NNE,28,0.0,0.0,93,0.00,CLR,,0.00,WeatherDisplay:10.37,2013-04-28 12:36:00,
2013-04-28 05:41:00,37.9,36.1,30.20,NNE,28,0.0,0.0,93,0.00,CLR,,0.00,WeatherDisplay:10.37,2013-04-28 12:41:00,
2013-04-28 05:46:00,38.0,36.2,30.20,NNE,33,0.0,0.0,93,0.00,CLR,,0.00,WeatherDisplay:10.37,2013-04-28 12:46:00,
2013-04-28 05:51:00,38.0,36.2,30.19,North,10,0.0,0.0,93,0.00,CLR,,0.00,WeatherDisplay:10.37,2013-04-28 12:51:00,
2013-04-28 05:56:00,37.9,36.1,30.20,NNE,12,0.0,0.0,93,0.00,CLR,,0.00,WeatherDisplay:10.37,2013-04-28 12:56:00,
2013-04-28 06:02:00,37.9,36.1,30.19,NNE,23,0.0,0.0,93,0.00,CLR,,0.00,WeatherDisplay:10.37,2013-04-28 13:02:00,
2013-04-28 06:07:00,37.8,36.0,30.20,NNE,23,0.0,0.0,93,0.00,CLR,,0.00,WeatherDisplay:10.37,2013-04-28 13:07:00,
2013-04-28 06:12:00,37.7,35.9,30.20,North,6,0.0,0.0,93,0.00,CLR,,0.00,WeatherDisplay:10.37,2013-04-28 13:12:00,
2013-04-28 06:17:00,37.7,35.9,30.19,NNW,348,0.0,0.0,93,0.00,CLR,,0.00,WeatherDisplay:10.37,2013-04-28 13:17:00,
2013-04-28 06:22:00,37.9,36.3,30.19,North,351,0.0,0.0,94,0.00,CLR,,0.00,WeatherDisplay:10.37,2013-04-28 13:22:00,
2013-04-28 06:27:00,37.9,36.3,30.19,NNW,341,0.0,0.0,94,0.00,CLR,,0.00,WeatherDisplay:10.37,2013-04-28 13:27:00,
2013-04-28 06:32:00,37.8,36.2,30.19,North,349,0.0,0.0,94,0.00,CLR,,0.00,WeatherDisplay:10.37,2013-04-28 13:32:00,
2013-04-28 06:37:00,37.7,36.1,30.19,NNW,343,0.0,0.0,94,0.00,CLR,,0.00,WeatherDisplay:10.37,2013-04-28 13:37:00,
2013-04-28 06:42:00,37.6,36.0,30.19,NNW,333,0.0,0.0,94,0.00,CLR,,0.00,WeatherDisplay:10.37,2013-04-28 13:42:00,
2013-04-28 06:47:00,37.5,35.9,30.19,North,355,0.0,0.0,94,0.00,CLR,,0.00,WeatherDisplay:10.37,2013-04-28 13:47:00,
2013-04-28 06:52:00,37.4,35.8,30.19,North,8,0.0,0.0,94,0.00,CLR,,0.00,WeatherDisplay:10.37,2013-04-28 13:52:00,
2013-04-28 06:57:00,37.3,35.7,30.20,North,10,0.0,0.0,94,0.00,CLR,,0.00,WeatherDisplay:10.37,2013-04-28 13:57:00,
2013-04-28 07:02:00,37.2,35.6,30.20,NNE,23,0.0,0.0,94,0.00,CLR,,0.00,WeatherDisplay:10.37,2013-04-28 14:02:00,
2013-04-28 07:07:00,37.2,35.6,30.20,NNE,23,0.0,0.0,94,0.00,CLR,,0.00,WeatherDisplay:10.37,2013-04-28 14:07:00,
2013-04-28 07:12:00,37.2,35.6,30.20,NNE,14,0.0,0.0,94,0.00,CLR,,0.00,WeatherDisplay:10.37,2013-04-28 14:12:00,
2013-04-28 07:17:00,37.3,35.7,30.20,NNE,12,0.0,0.0,94,0.00,CLR,,0.00,WeatherDisplay:10.37,2013-04-28 14:17:00,
2013-04-28 07:22:00,37.4,35.8,30.20,NNE,28,0.0,0.0,94,0.00,CLR,,0.00,WeatherDisplay:10.37,2013-04-28 14:22:00,
2013-04-28 07:27:00,37.5,35.9,30.20,NNE,14,0.0,0.0,94,0.00,CLR,,0.00,WeatherDisplay:10.37,2013-04-28 14:27:00,
2013-04-28 07:32:00,37.7,36.4,30.20,NNE,14,0.0,0.0,95,0.00,CLR,,0.00,WeatherDisplay:10.37,2013-04-28 14:32:00,
2013-04-28 07:37:00,38.0,36.7,30.21,NNE,28,0.0,0.0,95,0.00,CLR,,0.00,WeatherDisplay:10.37,2013-04-28 14:37:00,
2013-04-28 07:42:00,38.5,37.2,30.21,NNW,341,0.0,0.0,95,0.00,CLR,,0.00,WeatherDisplay:10.37,2013-04-28 14:42:00,
2013-04-28 07:47:00,38.9,37.6,30.21,NNE,16,0.0,0.0,95,0.00,CLR,,0.00,WeatherDisplay:10.37,2013-04-28 14:47:00,
2013-04-28 07:52:00,39.1,37.5,30.21,NNE,33,0.0,0.0,94,0.00,CLR,,0.00,WeatherDisplay:10.37,2013-04-28 14:52:00,
2013-04-28 07:57:00,39.2,37.6,30.21,NNE,33,0.0,0.0,94,0.00,CLR,,0.00,WeatherDisplay:10.37,2013-04-28 14:57:00,
2013-04-28 08:02:00,39.4,37.8,30.21,NNE,33,0.0,0.0,94,0.00,CLR,,0.00,WeatherDisplay:10.37,2013-04-28 15:02:00,
2013-04-28 08:07:00,39.6,38.0,30.21,North,355,0.0,0.0,94,0.00,CLR,,0.00,WeatherDisplay:10.37,2013-04-28 15:07:00,
2013-04-28 08:12:00,39.9,38.0,30.21,North,353,0.0,0.0,93,0.00,CLR,,0.00,WeatherDisplay:10.37,2013-04-28 15:12:00,
2013-04-28 08:17:00,40.2,38.3,30.21,North,351,0.0,0.0,93,0.00,CLR,,0.00,WeatherDisplay:10.37,2013-04-28 15:17:00,
2013-04-28 08:22:00,40.5,38.6,30.21,NNW,348,0.0,0.0,93,0.00,CLR,,0.00,WeatherDisplay:10.37,2013-04-28 15:22:00,
2013-04-28 08:27:00,40.9,39.0,30.21,NW,307,0.0,0.0,93,0.00,CLR,,0.00,WeatherDisplay:10.37,2013-04-28 15:27:00,
2013-04-28 08:32:00,41.2,39.3,30.21,NW,307,0.0,0.0,93,0.00,CLR,,0.00,WeatherDisplay:10.37,2013-04-28 15:32:00,
2013-04-28 08:37:00,41.4,39.5,30.20,NW,307,0.0,0.0,93,0.00,CLR,,0.00,WeatherDisplay:10.37,2013-04-28 15:37:00,
2013-04-28 08:42:00,41.7,39.8,30.20,West,261,0.0,0.0,93,0.00,CLR,,0.00,WeatherDisplay:10.37,2013-04-28 15:42:00,
2013-04-28 08:47:00,41.8,39.6,30.21,West,261,0.0,0.0,92,0.00,CLR,,0.00,WeatherDisplay:10.37,2013-04-28 15:47:00,
2013-04-28 08:52:00,42.0,39.8,30.20,West,261,0.0,0.0,92,0.00,CLR,,0.00,WeatherDisplay:10.37,2013-04-28 15:52:00,
2013-04-28 08:57:00,42.4,40.0,30.20,East,97,0.0,0.0,91,0.00,CLR,,0.00,WeatherDisplay:10.37,2013-04-28 15:57:00,
2013-04-28 09:02:00,43.4,39.8,30.20,SE,136,0.0,0.0,87,0.00,CLR,,0.00,WeatherDisplay:10.37,2013-04-28 16:02:00,
2013-04-28 09:07:00,44.5,39.7,30.19,SE,143,0.0,0.0,83,0.00,CLR,,0.00,WeatherDisplay:10.37,2013-04-28 16:07:00,
2013-04-28 09:12:00,45.2,40.0,30.19,South,174,0.0,0.0,82,0.00,CLR,,0.00,WeatherDisplay:10.37,2013-04-28 16:12:00,
2013-04-28 09:17:00,45.6,39.8,30.19,SE,146,0.0,0.0,80,0.00,CLR,,0.00,WeatherDisplay:10.37,2013-04-28 16:17:00,
2013-04-28 09:22:00,46.1,39.3,30.19,SSE,166,0.0,0.0,77,0.00,CLR,,0.00,WeatherDisplay:10.37,2013-04-28 16:22:00,
2013-04-28 09:27:00,46.7,39.2,30.19,SSE,157,0.0,0.0,75,0.00,CLR,,0.00,WeatherDisplay:10.37,2013-04-28 16:27:00,
2013-04-28 09:32:00,47.3,36.9,30.20,SSE,147,0.0,0.0,67,0.00,CLR,,0.00,WeatherDisplay:10.37,2013-04-28 16:32:00,
2013-04-28 09:37:00,47.8,36.6,30.19,SE,135,0.0,0.0,65,0.00,CLR,,0.00,WeatherDisplay:10.37,2013-04-28 16:37:00,
2013-04-28 09:42:00,48.1,35.7,30.19,SE,141,0.0,0.0,62,0.00,CLR,,0.00,WeatherDisplay:10.37,2013-04-28 16:42:00,
2013-04-28 09:47:00,48.4,37.9,30.19,SE,137,0.0,0.0,67,0.00,CLR,,0.00,WeatherDisplay:10.37,2013-04-28 16:47:00,
2013-04-28 09:52:00,48.4,37.2,30.18,SE,134,0.0,0.0,65,0.00,CLR,,0.00,WeatherDisplay:10.37,2013-04-28 16:52:00,
2013-04-28 09:57:00,48.5,36.5,30.18,SE,135,0.0,0.0,63,0.00,CLR,,0.00,WeatherDisplay:10.37,2013-04-28 16:57:00,
2013-04-28 10:02:00,48.7,35.8,30.18,SE,130,0.0,0.0,61,0.00,CLR,,0.00,WeatherDisplay:10.37,2013-04-28 17:02:00,
2013-04-28 10:07:00,48.9,36.4,30.18,SE,143,0.0,0.0,62,0.00,CLR,,0.00,WeatherDisplay:10.37,2013-04-28 17:07:00,
2013-04-28 10:12:00,49.0,36.1,30.18,SE,139,0.0,0.0,61,0.00,CLR,,0.00,WeatherDisplay:10.37,2013-04-28 17:12:00,
2013-04-28 10:17:00,48.9,38.0,30.18,SE,136,0.0,0.0,66,0.00,CLR,,0.00,WeatherDisplay:10.37,2013-04-28 17:17:00,
2013-04-28 10:22:00,48.8,35.9,30.18,SE,124,0.0,0.0,61,0.00,CLR,,0.00,WeatherDisplay:10.37,2013-04-28 17:22:00,
2013-04-28 10:27:00,49.2,37.1,30.18,SE,140,0.0,0.0,63,0.00,CLR,,0.00,WeatherDisplay:10.37,2013-04-28 17:27:00,
2013-04-28 10:32:00,49.6,36.7,30.17,SE,124,0.0,0.0,61,0.00,CLR,,0.00,WeatherDisplay:10.37,2013-04-28 17:32:00,
2013-04-28 10:37:00,50.0,36.7,30.17,SE,133,0.0,0.0,60,0.00,CLR,,0.00,WeatherDisplay:10.37,2013-04-28 17:37:00,
2013-04-28 10:42:00,49.8,35.2,30.17,SE,137,0.0,0.0,57,0.00,CLR,,0.00,WeatherDisplay:10.37,2013-04-28 17:42:00,
2013-04-28 10:47:00,50.4,37.4,30.17,SSE,149,0.0,0.0,61,0.00,CLR,,0.00,WeatherDisplay:10.37,2013-04-28 17:47:00,
2013-04-28 10:52:00,50.1,36.3,30.17,SE,144,0.0,0.0,59,0.00,CLR,,0.00,WeatherDisplay:10.37,2013-04-28 17:52:00,
2013-04-28 10:57:00,50.3,35.2,30.17,ESE,118,0.0,0.0,56,0.00,CLR,,0.00,WeatherDisplay:10.37,2013-04-28 17:57:00,
2013-04-28 11:02:00,50.7,36.0,30.17,SE,128,0.0,0.0,57,0.00,CLR,,0.00,WeatherDisplay:10.37,2013-04-28 18:02:00,
2013-04-28 11:07:00,50.9,35.3,30.17,SE,141,0.0,0.0,55,0.00,CLR,,0.00,WeatherDisplay:10.37,2013-04-28 18:07:00,
2013-04-28 11:12:00,51.2,36.0,30.17,SE,143,0.0,0.0,56,0.00,CLR,,0.00,WeatherDisplay:10.37,2013-04-28 18:12:00,
2013-04-28 11:17:00,50.9,35.3,30.17,SE,142,0.0,0.0,55,0.00,CLR,,0.00,WeatherDisplay:10.37,2013-04-28 18:17:00,
2013-04-28 11:22:00,51.2,36.5,30.16,SE,129,0.0,0.0,57,0.00,CLR,,0.00,WeatherDisplay:10.37,2013-04-28 18:22:00,
2013-04-28 11:27:00,51.2,36.0,30.16,SSE,149,0.0,0.0,56,0.00,CLR,,0.00,WeatherDisplay:10.37,2013-04-28 18:27:00,
2013-04-28 11:32:00,51.1,36.8,30.16,SE,133,0.0,0.0,58,0.00,CLR,,0.00,WeatherDisplay:10.37,2013-04-28 18:32:00,
2013-04-28 11:37:00,51.1,37.7,30.16,SE,133,0.0,0.0,60,0.00,CLR,,0.00,WeatherDisplay:10.37,2013-04-28 18:37:00,
2013-04-28 11:42:00,51.2,37.8,30.16,SSE,154,0.0,0.0,60,0.00,CLR,,0.00,WeatherDisplay:10.37,2013-04-28 18:42:00,
2013-04-28 11:47:00,51.2,36.5,30.16,SE,143,0.0,0.0,57,0.00,CLR,,0.00,WeatherDisplay:10.37,2013-04-28 18:47:00,
2013-04-28 11:52:00,51.3,36.6,30.16,SSE,148,0.0,0.0,57,0.00,CLR,,0.00,WeatherDisplay:10.37,2013-04-28 18:52:00,
2013-04-28 11:57:00,51.2,36.5,30.16,SE,139,0.0,0.0,57,0.00,CLR,,0.00,WeatherDisplay:10.37,2013-04-28 18:57:00,
2013-04-28 12:02:00,51.2,36.0,30.15,SE,138,0.0,0.0,56,0.00,CLR,,0.00,WeatherDisplay:10.37,2013-04-28 19:02:00,
2013-04-28 12:07:00,51.3,36.6,30.15,SSE,151,0.0,0.0,57,0.00,CLR,,0.00,WeatherDisplay:10.37,2013-04-28 19:07:00,
2013-04-28 12:12:00,51.2,36.9,30.15,SE,135,0.0,0.0,58,0.00,CLR,,0.00,WeatherDisplay:10.37,2013-04-28 19:12:00,
2013-04-28 12:17:00,51.4,37.1,30.15,South,173,0.0,0.0,58,0.00,CLR,,0.00,WeatherDisplay:10.37,2013-04-28 19:17:00,
2013-04-28 12:22:00,51.8,36.6,30.15,SE,137,0.0,0.0,56,0.00,CLR,,0.00,WeatherDisplay:10.37,2013-04-28 19:22:00,
2013-04-28 12:27:00,51.9,36.2,30.15,SE,141,0.0,0.0,55,0.00,CLR,,0.00,WeatherDisplay:10.37,2013-04-28 19:27:00,
2013-04-28 12:32:00,51.8,37.0,30.15,SE,142,0.0,0.0,57,0.00,CLR,,0.00,WeatherDisplay:10.37,2013-04-28 19:32:00,
2013-04-28 12:37:00,51.7,38.3,30.15,SE,145,0.0,0.0,60,0.00,CLR,,0.00,WeatherDisplay:10.37,2013-04-28 19:37:00,
2013-04-28 12:42:00,51.5,37.6,30.15,SE,133,0.0,0.0,59,0.00,CLR,,0.00,WeatherDisplay:10.37,2013-04-28 19:42:00,
2013-04-28 12:47:00,51.9,37.1,30.15,SE,133,0.0,0.0,57,0.00,CLR,,0.00,WeatherDisplay:10.37,2013-04-28 19:47:00,
2013-04-28 12:52:00,51.6,37.7,30.15,SE,143,0.0,0.0,59,0.00,CLR,,0.00,WeatherDisplay:10.37,2013-04-28 19:52:00,
2013-04-28 12:57:00,51.4,37.1,30.15,SE,138,0.0,0.0,58,0.00,CLR,,0.00,WeatherDisplay:10.37,2013-04-28 19:57:00,
2013-04-28 13:02:00,51.5,37.2,30.15,SE,136,0.0,0.0,58,0.00,CLR,,0.00,WeatherDisplay:10.37,2013-04-28 20:02:00,
2013-04-28 13:07:00,51.5,37.2,30.15,SE,145,0.0,0.0,58,0.00,CLR,,0.00,WeatherDisplay:10.37,2013-04-28 20:07:00,
2013-04-28 13:12:00,51.6,38.6,30.15,SE,144,0.0,0.0,61,0.00,CLR,,0.00,WeatherDisplay:10.37,2013-04-28 20:12:00,
2013-04-28 13:17:00,51.3,39.9,30.16,SE,146,0.0,0.0,65,0.00,CLR,,0.00,WeatherDisplay:10.37,2013-04-28 20:17:00,
2013-04-28 13:22:00,51.2,38.6,30.15,South,169,0.0,0.0,62,0.00,CLR,,0.00,WeatherDisplay:10.37,2013-04-28 20:22:00,
2013-04-28 13:27:00,51.4,39.2,30.15,SSE,153,0.0,0.0,63,0.00,CLR,,0.00,WeatherDisplay:10.37,2013-04-28 20:27:00,
2013-04-28 13:32:00,51.6,38.2,30.15,SE,135,0.0,0.0,60,0.00,CLR,,0.00,WeatherDisplay:10.37,2013-04-28 20:32:00,
2013-04-28 13:37:00,51.3,39.9,30.15,South,181,0.0,0.0,65,0.00,CLR,,0.00,WeatherDisplay:10.37,2013-04-28 20:37:00,
2013-04-28 13:42:00,51.4,38.0,30.14,ESE,117,0.0,0.0,60,0.00,CLR,,0.00,WeatherDisplay:10.37,2013-04-28 20:42:00,
2013-04-28 13:47:00,51.6,38.2,30.15,SE,145,0.0,0.0,60,0.00,CLR,,0.00,WeatherDisplay:10.37,2013-04-28 20:47:00,
2013-04-28 13:52:00,51.5,38.1,30.14,SE,143,0.0,0.0,60,0.00,CLR,,0.00,WeatherDisplay:10.37,2013-04-28 20:52:00,
2013-04-28 13:57:00,51.4,38.4,30.14,SE,131,0.0,0.0,61,0.00,CLR,,0.00,WeatherDisplay:10.37,2013-04-28 20:57:00,
2013-04-28 14:02:00,51.5,39.3,30.14,SSE,153,0.0,0.0,63,0.00,CLR,,0.00,WeatherDisplay:10.37,2013-04-28 21:02:00,
2013-04-28 14:07:00,51.8,38.8,30.14,SE,137,0.0,0.0,61,0.00,CLR,,0.00,WeatherDisplay:10.37,2013-04-28 21:07:00,
2013-04-28 14:12:00,52.1,39.9,30.13,SE,140,0.0,0.0,63,0.00,CLR,,0.00,WeatherDisplay:10.37,2013-04-28 21:12:00,
2013-04-28 14:17:00,51.8,40.0,30.13,SE,146,0.0,0.0,64,0.00,CLR,,0.00,WeatherDisplay:10.37,2013-04-28 21:17:00,
2013-04-28 14:22:00,51.9,40.5,30.13,SE,141,0.0,0.0,65,0.00,CLR,,0.00,WeatherDisplay:10.37,2013-04-28 21:22:00,
2013-04-28 14:27:00,51.7,40.7,30.13,SE,141,0.0,0.0,66,0.00,CLR,,0.00,WeatherDisplay:10.37,2013-04-28 21:27:00,
2013-04-28 14:32:00,51.3,40.7,30.12,SSE,149,0.0,0.0,67,0.00,CLR,,0.00,WeatherDisplay:10.37,2013-04-28 21:32:00,
2013-04-28 14:37:00,51.4,40.0,30.12,SE,129,0.0,0.0,65,0.00,CLR,,0.00,WeatherDisplay:10.37,2013-04-28 21:37:00,
2013-04-28 14:42:00,51.6,39.8,30.12,SE,141,0.0,0.0,64,0.00,CLR,,0.00,WeatherDisplay:10.37,2013-04-28 21:42:00,
2013-04-28 14:47:00,51.6,39.4,30.11,SSE,148,0.0,0.0,63,0.00,CLR,,0.00,WeatherDisplay:10.37,2013-04-28 21:47:00,
2013-04-28 14:52:00,51.7,40.7,30.11,SSE,156,0.0,0.0,66,0.00,CLR,,0.00,WeatherDisplay:10.37,2013-04-28 21:52:00,
2013-04-28 14:57:00,51.5,39.3,30.11,SE,139,0.0,0.0,63,0.00,CLR,,0.00,WeatherDisplay:10.37,2013-04-28 21:57:00,
2013-04-28 15:02:00,51.5,39.7,30.11,SE,129,0.0,0.0,64,0.00,CLR,,0.00,WeatherDisplay:10.37,2013-04-28 22:02:00,
2013-04-28 15:07:00,51.5,40.9,30.11,SSE,147,0.0,0.0,67,0.00,CLR,,0.00,WeatherDisplay:10.37,2013-04-28 22:07:00,
2013-04-28 15:12:00,51.3,40.7,30.11,SE,140,0.0,0.0,67,0.00,CLR,,0.00,WeatherDisplay:10.37,2013-04-28 22:12:00,
2013-04-28 15:17:00,51.3,40.3,30.10,SE,145,0.0,0.0,66,0.00,CLR,,0.00,WeatherDisplay:10.37,2013-04-28 22:17:00,
2013-04-28 15:22:00,51.4,40.8,30.10,SE,137,0.0,0.0,67,0.00,CLR,,0.00,WeatherDisplay:10.37,2013-04-28 22:22:00,
2013-04-28 15:27:00,51.4,40.8,30.09,SE,136,0.0,0.0,67,0.00,CLR,,0.00,WeatherDisplay:10.37,2013-04-28 22:27:00,
2013-04-28 15:32:00,51.4,40.4,30.09,SE,134,0.0,0.0,66,0.00,CLR,,0.00,WeatherDisplay:10.37,2013-04-28 22:32:00,
2013-04-28 15:37:00,50.9,41.1,30.09,SE,143,0.0,0.0,69,0.00,CLR,,0.00,WeatherDisplay:10.37,2013-04-28 22:37:00,
2013-04-28 15:42:00,50.3,42.0,30.08,SE,145,0.0,0.0,73,0.00,CLR,,0.00,WeatherDisplay:10.37,2013-04-28 22:42:00,
2013-04-28 15:47:00,50.2,42.9,30.08,SSE,150,0.0,0.0,76,0.00,CLR,,0.00,WeatherDisplay:10.37,2013-04-28 22:47:00,
2013-04-28 15:52:00,49.9,42.3,30.08,SSE,155,0.0,0.0,75,0.00,CLR,,0.00,WeatherDisplay:10.37,2013-04-28 22:52:00,
2013-04-28 15:57:00,49.8,42.5,30.08,SE,146,0.0,0.0,76,0.00,CLR,,0.00,WeatherDisplay:10.37,2013-04-28 22:57:00,
2013-04-28 16:02:00,49.5,42.9,30.08,SE,131,0.0,0.0,78,0.00,CLR,,0.00,WeatherDisplay:10.37,2013-04-28 23:02:00,
2013-04-28 16:07:00,49.1,42.5,30.08,SE,145,0.0,0.0,78,0.00,CLR,,0.00,WeatherDisplay:10.37,2013-04-28 23:07:00,
2013-04-28 16:12:00,49.1,42.2,30.08,SSE,147,0.0,0.0,77,0.00,CLR,,0.00,WeatherDisplay:10.37,2013-04-28 23:12:00,
2013-04-28 16:17:00,49.1,43.2,30.07,SSE,151,0.0,0.0,80,0.00,CLR,,0.00,WeatherDisplay:10.37,2013-04-28 23:17:00,
2013-04-28 16:22:00,48.9,43.3,30.07,SE,139,0.0,0.0,81,0.00,CLR,,0.00,WeatherDisplay:10.37,2013-04-28 23:22:00,
2013-04-28 16:27:00,48.4,43.8,30.07,SE,136,0.0,0.0,84,0.00,CLR,,0.00,WeatherDisplay:10.37,2013-04-28 23:27:00,
2013-04-28 16:32:00,48.2,43.3,30.06,SE,129,0.0,0.0,83,0.00,CLR,,0.00,WeatherDisplay:10.37,2013-04-28 23:32:00,
2013-04-28 16:37:00,48.3,43.7,30.06,SE,131,0.0,0.0,84,0.00,CLR,,0.00,WeatherDisplay:10.37,2013-04-28 23:37:00,
2013-04-28 16:42:00,48.2,43.6,30.06,SE,145,0.0,0.0,84,0.00,CLR,,0.00,WeatherDisplay:10.37,2013-04-28 23:42:00,
2013-04-28 16:47:00,48.0,43.4,30.05,SE,135,0.0,0.0,84,0.00,CLR,,0.00,WeatherDisplay:10.37,2013-04-28 23:47:00,
2013-04-28 16:52:00,47.8,43.8,30.05,SE,141,0.0,0.0,86,0.00,CLR,,0.00,WeatherDisplay:10.37,2013-04-28 23:52:00,
2013-04-28 16:57:00,47.8,43.8,30.05,SE,146,0.0,0.0,86,0.00,CLR,,0.00,WeatherDisplay:10.37,2013-04-28 23:57:00,
2013-04-28 17:02:00,47.8,44.1,30.04,SSE,147,0.0,0.0,87,0.00,CLR,,0.00,WeatherDisplay:10.37,2013-04-29 00:02:00,
2013-04-28 17:07:00,47.8,44.1,30.04,SE,145,0.0,0.0,87,0.01,RA,,0.01,WeatherDisplay:10.37,2013-04-29 00:07:00,
2013-04-28 17:12:00,47.8,44.4,30.03,SE,143,0.0,0.0,88,0.01,RA,,0.01,WeatherDisplay:10.37,2013-04-29 00:12:00,
2013-04-28 17:17:00,47.7,44.6,30.03,SSE,150,0.0,0.0,89,0.01,CLR,,0.01,WeatherDisplay:10.37,2013-04-29 00:17:00,
2013-04-28 17:22:00,47.6,44.8,30.03,South,180,0.0,0.0,90,0.02,RA,,0.02,WeatherDisplay:10.37,2013-04-29 00:22:00,
2013-04-28 17:27:00,47.6,44.5,30.03,SE,141,0.0,0.0,89,0.02,RA,,0.02,WeatherDisplay:10.37,2013-04-29 00:27:00,
2013-04-28 17:32:00,47.6,43.9,30.02,SSE,148,0.0,0.0,87,0.02,RA,,0.02,WeatherDisplay:10.37,2013-04-29 00:32:00,
2013-04-28 17:37:00,47.6,43.9,30.02,SSE,164,0.0,0.0,87,0.03,RA,,0.03,WeatherDisplay:10.37,2013-04-29 00:37:00,
2013-04-28 17:42:00,47.8,44.4,30.01,SE,144,0.0,0.0,88,0.04,RA,,0.04,WeatherDisplay:10.37,2013-04-29 00:42:00,
2013-04-28 17:47:00,47.8,43.8,30.01,SE,143,0.0,0.0,86,0.04,RA,,0.04,WeatherDisplay:10.37,2013-04-29 00:47:00,
2013-04-28 17:52:00,47.8,44.1,30.01,SE,139,0.0,0.0,87,0.05,RA,,0.05,WeatherDisplay:10.37,2013-04-29 00:52:00,
2013-04-28 17:57:00,47.7,44.0,30.01,SE,134,0.0,0.0,88,0.06,,,0.06,weatherlink.com 1.10,2013-04-29 00:57:00,
2013-04-28 18:02:00,47.6,44.2,30.01,SE,133,0.0,0.0,88,0.06,RA,,0.06,WeatherDisplay:10.37,2013-04-29 01:02:00,
2013-04-28 18:07:00,47.6,44.8,30.01,South,175,0.0,0.0,90,0.06,RA,,0.06,WeatherDisplay:10.37,2013-04-29 01:07:00,
2013-04-28 18:12:00,47.6,44.2,30.00,South,183,0.0,0.0,88,0.06,RA,,0.07,WeatherDisplay:10.37,2013-04-29 01:12:00,
2013-04-28 18:17:00,47.7,44.6,30.00,SSE,163,0.0,0.0,89,0.07,RA,,0.08,WeatherDisplay:10.37,2013-04-29 01:17:00,
2013-04-28 18:22:00,47.8,44.7,30.00,SE,131,0.0,0.0,89,0.08,RA,,0.09,WeatherDisplay:10.37,2013-04-29 01:22:00,
2013-04-28 18:27:00,48.0,44.6,29.99,SSE,157,0.0,0.0,88,0.08,RA,,0.09,WeatherDisplay:10.37,2013-04-29 01:27:00,
2013-04-28 18:32:00,48.0,44.3,29.99,SSE,164,0.0,0.0,87,0.07,RA,,0.10,WeatherDisplay:10.37,2013-04-29 01:32:00,
2013-04-28 18:37:00,48.0,44.6,29.98,SSE,156,0.0,0.0,88,0.08,RA,,0.10,WeatherDisplay:10.37,2013-04-29 01:37:00,
2013-04-28 18:42:00,48.1,44.1,29.97,SSE,153,0.0,0.0,86,0.07,RA,,0.10,WeatherDisplay:10.37,2013-04-29 01:42:00,
2013-04-28 18:47:00,48.2,44.5,29.97,SSE,163,0.0,0.0,87,0.07,RA,,0.11,WeatherDisplay:10.37,2013-04-29 01:47:00,
2013-04-28 18:52:00,48.0,44.0,29.97,SE,137,0.0,0.0,86,0.07,RA,,0.11,WeatherDisplay:10.37,2013-04-29 01:52:00,
2013-04-28 18:57:00,47.9,43.9,29.96,SSE,151,0.0,0.0,86,0.07,RA,,0.12,WeatherDisplay:10.37,2013-04-29 01:57:00,
2013-04-28 19:02:00,47.7,44.0,29.96,SSE,149,0.0,0.0,87,0.06,RA,,0.13,WeatherDisplay:10.37,2013-04-29 02:02:00,
2013-04-28 19:07:00,47.7,43.7,29.95,ESE,122,0.0,0.0,86,0.06,RA,,0.13,WeatherDisplay:10.37,2013-04-29 02:07:00,
2013-04-28 19:12:00,47.5,43.8,29.95,SE,143,0.0,0.0,87,0.06,RA,,0.13,WeatherDisplay:10.37,2013-04-29 02:12:00,
2013-04-28 19:17:00,47.4,43.4,29.94,SE,145,0.0,0.0,86,0.06,RA,,0.14,WeatherDisplay:10.37,2013-04-29 02:17:00,
2013-04-28 19:22:00,47.2,43.5,29.94,SE,126,0.0,0.0,87,0.06,RA,,0.14,WeatherDisplay:10.37,2013-04-29 02:22:00,
2013-04-28 19:27:00,47.3,43.9,29.94,SSE,155,0.0,0.0,88,0.06,RA,,0.15,WeatherDisplay:10.37,2013-04-29 02:27:00,
2013-04-28 19:32:00,47.3,43.6,29.94,SSE,149,0.0,0.0,87,0.06,RA,,0.15,WeatherDisplay:10.37,2013-04-29 02:32:00,
2013-04-28 19:37:00,47.4,43.7,29.94,SE,134,0.0,0.0,87,0.06,RA,,0.16,WeatherDisplay:10.37,2013-04-29 02:37:00,
2013-04-28 19:42:00,47.3,43.6,29.94,SSE,149,0.0,0.0,87,0.06,RA,,0.16,WeatherDisplay:10.37,2013-04-29 02:42:00,
2013-04-28 19:47:00,47.4,44.6,29.94,SSW,192,0.0,0.0,90,0.06,RA,,0.17,WeatherDisplay:10.37,2013-04-29 02:47:00,
2013-04-28 19:52:00,47.5,44.4,29.95,SW,219,0.0,0.0,89,0.06,RA,,0.17,WeatherDisplay:10.37,2013-04-29 02:52:00,
2013-04-28 19:57:00,46.8,43.1,29.95,WSW,249,0.0,0.0,87,0.06,RA,,0.17,WeatherDisplay:10.37,2013-04-29 02:57:00,
2013-04-28 20:02:00,46.1,43.0,29.95,WSW,251,0.0,0.0,89,0.06,RA,,0.18,WeatherDisplay:10.37,2013-04-29 03:02:00,
2013-04-28 20:07:00,45.7,42.6,29.95,West,270,0.0,0.0,89,0.06,RA,,0.19,WeatherDisplay:10.37,2013-04-29 03:07:00,
2013-04-28 20:12:00,45.5,42.7,29.95,WSW,254,0.0,0.0,90,0.06,RA,,0.20,WeatherDisplay:10.37,2013-04-29 03:12:00,
2013-04-28 20:17:00,45.4,42.6,29.94,West,269,0.0,0.0,90,0.06,RA,,0.20,WeatherDisplay:10.37,2013-04-29 03:17:00,
2013-04-28 20:22:00,45.5,43.0,29.94,WSW,258,0.0,0.0,91,0.07,RA,,0.21,WeatherDisplay:10.37,2013-04-29 03:22:00,
2013-04-28 20:27:00,45.4,42.6,29.94,WSW,253,0.0,0.0,90,0.07,RA,,0.22,WeatherDisplay:10.37,2013-04-29 03:27:00,
2013-04-28 20:32:00,45.3,42.5,29.94,West,261,0.0,0.0,90,0.07,RA,,0.23,WeatherDisplay:10.37,2013-04-29 03:32:00,
2013-04-28 20:37:00,45.2,42.7,29.93,West,271,0.0,0.0,91,0.07,RA,,0.23,WeatherDisplay:10.37,2013-04-29 03:37:00,
2013-04-28 20:42:00,45.3,42.8,29.93,NW,323,0.0,0.0,91,0.07,RA,,0.23,WeatherDisplay:10.37,2013-04-29 03:42:00,
2013-04-28 20:47:00,45.4,43.2,29.93,WNW,289,0.0,0.0,92,0.06,CLR,,0.23,WeatherDisplay:10.37,2013-04-29 03:47:00,
2013-04-28 20:52:00,45.3,43.1,29.93,WNW,292,0.0,0.0,92,0.06,CLR,,0.23,WeatherDisplay:10.37,2013-04-29 03:52:00,
2013-04-28 20:57:00,45.3,43.1,29.93,West,270,0.0,0.0,92,0.06,CLR,,0.23,WeatherDisplay:10.37,2013-04-29 03:57:00,
2013-04-28 21:01:00,45.4,43.2,29.93,WNW,285,0.0,0.0,92,0.06,RA,,0.24,WeatherDisplay:10.37,2013-04-29 04:01:00,
2013-04-28 21:06:00,45.2,42.7,29.93,WNW,287,0.0,0.0,91,0.06,RA,,0.24,WeatherDisplay:10.37,2013-04-29 04:06:00,
2013-04-28 21:11:00,45.1,42.6,29.93,WNW,285,0.0,0.0,91,0.04,,,0.24,WeatherDisplay:10.37,2013-04-29 04:11:00,
2013-04-28 21:16:00,45.1,42.6,29.93,WNW,289,0.0,0.0,91,0.03,CLR,,0.24,WeatherDisplay:10.37,2013-04-29 04:16:00,
2013-04-28 21:21:00,45.1,42.6,29.93,North,356,0.0,0.0,91,0.02,CLR,,0.24,WeatherDisplay:10.37,2013-04-29 04:21:00,
2013-04-28 21:26:00,45.2,43.0,29.93,NNW,330,0.0,0.0,92,0.02,CLR,,0.24,WeatherDisplay:10.37,2013-04-29 04:26:00,
2013-04-28 21:31:00,45.2,43.0,29.93,NNE,28,0.0,0.0,92,0.02,CLR,,0.24,WeatherDisplay:10.37,2013-04-29 04:31:00,
2013-04-28 21:36:00,45.1,42.9,29.93,NE,46,0.0,0.0,92,0.01,CLR,,0.24,WeatherDisplay:10.37,2013-04-29 04:36:00,
2013-04-28 21:41:00,45.0,42.8,29.92,NNE,23,0.0,0.0,92,0.01,CLR,,0.24,WeatherDisplay:10.37,2013-04-29 04:41:00,
2013-04-28 21:46:00,44.8,42.6,29.92,NNE,33,0.0,0.0,92,0.01,CLR,,0.24,WeatherDisplay:10.37,2013-04-29 04:46:00,
2013-04-28 21:51:00,44.6,42.4,29.92,NNE,23,0.0,0.0,92,0.01,CLR,,0.24,WeatherDisplay:10.37,2013-04-29 04:51:00,
2013-04-28 21:56:00,44.5,42.3,29.92,NNE,33,0.0,0.0,92,0.01,CLR,,0.24,WeatherDisplay:10.37,2013-04-29 04:56:00,
2013-04-28 22:01:00,44.4,42.5,29.92,NNE,13,0.0,0.0,93,0.00,CLR,,0.24,WeatherDisplay:10.37,2013-04-29 05:01:00,
2013-04-28 22:06:00,44.4,42.5,29.92,NNE,17,0.0,0.0,93,0.00,CLR,,0.24,WeatherDisplay:10.37,2013-04-29 05:06:00,
2013-04-28 22:11:00,44.3,42.4,29.92,NNE,13,0.0,0.0,93,0.00,CLR,,0.24,WeatherDisplay:10.37,2013-04-29 05:11:00,
2013-04-28 22:16:00,44.3,42.4,29.92,North,4,0.0,0.0,93,0.00,CLR,,0.24,WeatherDisplay:10.37,2013-04-29 05:16:00,
2013-04-28 22:21:00,44.5,42.6,29.92,North,358,0.0,0.0,93,0.00,CLR,,0.24,WeatherDisplay:10.37,2013-04-29 05:21:00,
2013-04-28 22:26:00,44.5,42.6,29.92,North,10,0.0,0.0,93,0.00,CLR,,0.24,WeatherDisplay:10.37,2013-04-29 05:26:00,
2013-04-28 22:31:00,44.3,42.4,29.92,NNE,18,0.0,0.0,93,0.00,CLR,,0.24,WeatherDisplay:10.37,2013-04-29 05:31:00,
2013-04-28 22:36:00,44.3,42.4,29.93,NNE,13,0.0,0.0,93,0.00,CLR,,0.24,WeatherDisplay:10.37,2013-04-29 05:36:00,
2013-04-28 22:41:00,44.3,42.7,29.92,NNE,28,0.0,0.0,94,0.00,CLR,,0.24,WeatherDisplay:10.37,2013-04-29 05:41:00,
2013-04-28 22:46:00,44.2,42.6,29.92,North,7,0.0,0.0,94,0.00,CLR,,0.24,WeatherDisplay:10.37,2013-04-29 05:46:00,
2013-04-28 22:51:00,44.2,42.6,29.93,NNE,28,0.0,0.0,94,0.00,CLR,,0.24,WeatherDisplay:10.37,2013-04-29 05:51:00,
2013-04-28 22:56:00,44.2,42.6,29.92,NNE,23,0.0,0.0,94,0.00,CLR,,0.24,WeatherDisplay:10.37,2013-04-29 05:56:00,
2013-04-28 23:01:00,44.2,42.6,29.93,North,5,0.0,0.0,94,0.00,CLR,,0.24,WeatherDisplay:10.37,2013-04-29 06:01:00,
2013-04-28 23:06:00,44.2,42.6,29.93,NNW,345,0.0,0.0,94,0.00,CLR,,0.24,WeatherDisplay:10.37,2013-04-29 06:06:00,
2013-04-28 23:11:00,44.3,42.7,29.93,NNW,334,0.0,0.0,94,0.00,CLR,,0.24,WeatherDisplay:10.37,2013-04-29 06:11:00,
2013-04-28 23:16:00,44.2,42.3,29.93,NNW,328,0.0,0.0,93,0.00,CLR,,0.24,WeatherDisplay:10.37,2013-04-29 06:16:00,
2013-04-28 23:21:00,44.2,42.6,29.93,North,8,0.0,0.0,94,0.00,CLR,,0.24,WeatherDisplay:10.37,2013-04-29 06:21:00,
2013-04-28 23:26:00,44.2,42.6,29.93,NE,38,0.0,0.0,94,0.00,CLR,,0.24,WeatherDisplay:10.37,2013-04-29 06:26:00,
2013-04-28 23:31:00,44.2,42.6,29.93,NNE,33,0.0,0.0,94,0.00,CLR,,0.24,WeatherDisplay:10.37,2013-04-29 06:31:00,
2013-04-28 23:36:00,44.2,42.6,29.93,NE,39,0.0,0.0,94,0.00,CLR,,0.24,WeatherDisplay:10.37,2013-04-29 06:36:00,
2013-04-28 23:41:00,44.2,42.6,29.93,ENE,60,0.0,0.0,94,0.00,CLR,,0.24,WeatherDisplay:10.37,2013-04-29 06:41:00,
2013-04-28 23:46:00,44.3,42.7,29.93,NE,55,0.0,0.0,94,0.00,CLR,,0.24,WeatherDisplay:10.37,2013-04-29 06:46:00,
2013-04-28 23:51:00,44.2,42.3,29.93,NNE,28,0.0,0.0,93,0.00,CLR,,0.24,WeatherDisplay:10.37,2013-04-29 06:51:00,
2013-04-28 23:56:00,44.1,42.2,29.93,NNE,23,0.0,0.0,93,0.00,CLR,,0.24,WeatherDisplay:10.37,2013-04-29 06:56:00,